HAWK-6B

Last updated on Tue Sep 22 2026 00:03:52 GMT+0000 (Coordinated Universal Time)

1 55324U 23011A 26264.03223690 .00003815 00000+0 16381-3 0 9999 2 55324 40.4981 152.7197 0002888 317.4655 42.5931 15.23654156202462
UTC large
Height (km)
Speed (km/s)
/
Latitude / Longitude
Inclination (degrees)
Orbital Period (minutes)
Azimuth
Elevation
Range (km)
Doppler Factor

Next 0 passes for location: London (51.5072 / 0.1276)

No passes found over London.
HAWK-6B